Location: Golden Pond Observatory
(36.7667°N, 88.0167°W)
Time: 15:38:35
(UTC-05:00)

ISS - Visible Passes

Search period start: 20 July 2018 00:00
Search period end: 30 July 2018 00:00
Orbit: 402 x 408 km, 51.6° (Epoch: 20 July)

Date Brightness Start Highest point End Pass type
(mag) Time Alt. Az. Time Alt. Az. Time Alt. Az.
20 Jul -0.4 03:04:48 10° N 03:06:30 13° NNE 03:08:11 10° NE visible
20 Jul -3.7 04:40:08 10° NW 04:43:26 80° NE 04:46:44 10° SE visible
20 Jul -3.9 21:18:14 10° SW 21:21:30 86° NW 21:24:48 10° NE visible
20 Jul -0.4 22:56:39 10° WNW 22:58:25 14° NNW 23:00:11 10° N visible
21 Jul -2.4 03:48:09 10° NW 03:51:17 39° NE 03:54:24 10° ESE visible
21 Jul -1.0 22:03:31 10° W 22:06:04 20° NNW 22:08:36 10° NNE visible
22 Jul -1.3 02:56:19 10° NNW 02:59:02 23° NNE 03:01:43 10° E visible
22 Jul -3.3 04:32:31 10° WNW 04:35:34 35° SW 04:38:35 10° SSE visible
22 Jul -1.9 21:10:45 10° WSW 21:13:46 33° NW 21:16:47 10° NNE visible
23 Jul -0.4 21:57:13 10° NW 21:58:34 12° NNW 21:59:55 10° N visible
24 Jul -0.8 21:03:52 10° WNW 21:06:08 17° NNW 21:08:26 10° NNE visible
26 Jul -0.4 20:57:51 10° NNW 20:58:37 11° NNW 20:59:22 10° N visible
29 Jul -0.5 23:12:24 10° N 23:13:03 12° N 23:13:03 12° N visible
